�������l�o���
Date,Time,MP-1(��Sv/h),MP-2(��Sv/h),MP-3(��Sv/h),MP-4(��Sv/h),MP-5(��Sv/h),MP-6(��Sv/h),MP-7(��Sv/h),MP-8(��Sv/h),����,����(m/s),���J
2023/04/13,00:00,0.569,0.828,0.499,1.037,0.732,0.325,0.580,0.548,�k,6.1,��
2023/04/13,00:10,0.569,0.830,0.497,1.035,0.731,0.324,0.580,0.549,�k,6.1,��
2023/04/13,00:20,0.569,0.828,0.498,1.036,0.733,0.324,0.581,0.547,�k�k��,4.3,��
2023/04/13,00:30,0.568,0.826,0.498,1.038,0.732,0.324,0.581,0.549,�k�k��,5.2,��
2023/04/13,00:40,0.570,0.830,0.497,1.037,0.732,0.324,0.580,0.548,�k��,5.2,��
2023/04/13,00:50,0.569,0.829,0.496,1.036,0.730,0.325,0.582,0.547,�k��,5.7,��
2023/04/13,01:00,0.570,0.827,0.497,1.035,0.733,0.325,0.583,0.548,�k��,4.7,��
2023/04/13,01:10,0.569,0.828,0.497,1.038,0.732,0.324,0.581,0.549,�k��,5.7,��
2023/04/13,01:20,0.571,0.826,0.499,1.036,0.733,0.324,0.582,0.548,�k��,6.0,��
2023/04/13,01:30,0.569,0.828,0.498,1.035,0.731,0.325,0.580,0.548,�k��,4.9,��
2023/04/13,01:40,0.569,0.827,0.497,1.036,0.731,0.324,0.580,0.547,�k��,4.5,��
2023/04/13,01:50,0.570,0.827,0.497,1.039,0.733,0.323,0.580,0.548,�k��,4.0,��
2023/04/13,02:00,0.569,0.828,0.498,1.037,0.733,0.323,0.581,0.547,�k��,3.6,��
2023/04/13,02:10,0.570,0.826,0.498,1.033,0.731,0.324,0.580,0.548,�k��,2.8,��
2023/04/13,02:20,0.570,0.829,0.499,1.036,0.732,0.323,0.580,0.547,���k��,5.8,��
2023/04/13,02:30,0.570,0.826,0.496,1.034,0.732,0.324,0.579,0.547,�k��,5.7,��
2023/04/13,02:40,0.569,0.828,0.498,1.036,0.732,0.324,0.579,0.547,�k��,6.3,��
2023/04/13,02:50,0.569,0.826,0.497,1.036,0.733,0.324,0.579,0.547,�k��,7.2,��
2023/04/13,03:00,0.567,0.827,0.498,1.037,0.731,0.324,0.582,0.548,�k��,6.4,��
2023/04/13,03:10,0.569,0.826,0.496,1.036,0.733,0.325,0.580,0.548,���k��,5.2,��
2023/04/13,03:20,0.568,0.828,0.496,1.037,0.732,0.325,0.582,0.548,�k��,6.4,��
2023/04/13,03:30,0.571,0.827,0.498,1.035,0.732,0.324,0.581,0.548,�k�k��,6.4,��
2023/04/13,03:40,0.568,0.826,0.497,1.035,0.732,0.323,0.582,0.547,���k��,3.1,��
2023/04/13,03:50,0.569,0.827,0.498,1.036,0.731,0.323,0.582,0.548,��,4.0,��
2023/04/13,04:00,0.568,0.828,0.498,1.037,0.732,0.324,0.580,0.547,���쐼,3.9,��
2023/04/13,04:10,0.567,0.826,0.498,1.038,0.731,0.324,0.582,0.546,���쐼,5.6,��
2023/04/13,04:20,0.569,0.827,0.497,1.036,0.732,0.324,0.581,0.547,���쐼,6.3,��
2023/04/13,04:30,0.571,0.827,0.497,1.037,0.733,0.325,0.581,0.548,�쐼,5.9,��
2023/04/13,04:40,0.567,0.826,0.496,1.036,0.733,0.324,0.581,0.548,�쐼,5.3,��
2023/04/13,04:50,0.570,0.828,0.498,1.037,0.733,0.323,0.580,0.547,�쐼,5.8,��
2023/04/13,05:00,0.568,0.826,0.498,1.034,0.731,0.324,0.581,0.548,�쐼,5.4,��
2023/04/13,05:10,0.567,0.828,0.497,1.034,0.731,0.323,0.581,0.548,�쐼,5.9,��
2023/04/13,05:20,0.569,0.827,0.497,1.035,0.732,0.326,0.579,0.548,�쐼,5.9,��
2023/04/13,05:30,0.569,0.826,0.498,1.034,0.731,0.324,0.580,0.547,�쐼,5.4,��
2023/04/13,05:40,0.568,0.826,0.496,1.036,0.732,0.324,0.581,0.548,�쐼,5.8,��
2023/04/13,05:50,0.570,0.826,0.496,1.038,0.731,0.323,0.580,0.548,�쐼,5.6,��
2023/04/13,06:00,0.569,0.827,0.499,1.036,0.731,0.323,0.581,0.547,���쐼,5.4,��
2023/04/13,06:10,0.570,0.829,0.498,1.036,0.730,0.323,0.580,0.546,���쐼,5.8,��
2023/04/13,06:20,0.568,0.827,0.495,1.038,0.732,0.322,0.581,0.547,���쐼,5.8,��
2023/04/13,06:30,0.567,0.827,0.497,1.036,0.730,0.323,0.580,0.547,���쐼,5.6,��
2023/04/13,06:40,0.569,0.826,0.495,1.037,0.731,0.325,0.580,0.547,���쐼,5.6,��
2023/04/13,06:50,0.568,0.827,0.497,1.035,0.731,0.323,0.580,0.547,���쐼,5.8,��
2023/04/13,07:00,0.570,0.830,0.497,1.037,0.732,0.324,0.582,0.547,���쐼,5.2,��
2023/04/13,07:10,0.569,0.828,0.497,1.036,0.731,0.325,0.582,0.547,���쐼,5.0,��
2023/04/13,07:20,0.569,0.828,0.497,1.038,0.732,0.325,0.582,0.549,��,5.2,��
2023/04/13,07:30,0.568,0.829,0.498,1.036,0.733,0.323,0.582,0.547,���쐼,3.8,��
2023/04/13,07:40,0.571,0.830,0.498,1.038,0.732,0.323,0.581,0.546,��,3.7,��
2023/04/13,07:50,0.571,0.828,0.497,1.038,0.732,0.322,0.581,0.548,���쐼,3.3,��
2023/04/13,08:00,0.570,0.830,0.498,1.037,0.733,0.322,0.581,0.548,���쐼,3.5,��
2023/04/13,08:10,0.571,0.827,0.498,1.036,0.733,0.322,0.584,0.548,�쐼,3.1,��
2023/04/13,08:20,0.570,0.827,0.498,1.037,0.732,0.322,0.582,0.548,�쐼,2.2,��
2023/04/13,08:30,0.570,0.827,0.498,1.038,0.733,0.322,0.582,0.548,�쐼,2.3,��
2023/04/13,08:40,0.571,0.824,0.498,1.038,0.732,0.323,0.579,0.547,��쐼,2.6,��
2023/04/13,08:50,0.571,0.826,0.497,1.039,0.733,0.322,0.581,0.546,���쐼,2.6,��
2023/04/13,09:00,0.573,0.825,0.499,1.039,0.732,0.322,0.579,0.544,��,3.5,��
2023/04/13,09:10,0.572,0.826,-,1.036,0.734,0.324,0.581,0.546,��쐼,4.4,��
2023/04/13,09:20,0.573,0.827,-,1.037,0.732,0.324,0.580,0.543,�쐼,3.0,��
2023/04/13,09:30,0.570,0.827,-,1.038,0.735,0.323,0.580,0.545,��,3.4,��
2023/04/13,09:40,0.571,0.827,-,1.040,0.734,0.323,0.580,0.544,��,5.0,��
2023/04/13,09:50,0.571,0.827,-,1.038,0.733,0.323,0.582,0.544,���k��,3.1,��
2023/04/13,10:00,0.571,0.827,-,1.037,0.733,0.322,0.580,0.545,��,3.8,��
2023/04/13,10:10,0.571,0.828,-,1.040,0.731,0.323,0.581,0.545,��,1.2,��
2023/04/13,10:20,0.570,0.827,-,1.040,0.733,0.324,0.580,0.545,���k��,4.4,��
2023/04/13,10:30,0.572,0.830,-,1.037,0.734,0.323,0.582,0.545,��,5.4,��
2023/04/13,10:40,0.572,0.827,-,1.040,0.729,0.324,0.581,0.546,���k��,6.2,��
2023/04/13,10:50,0.571,0.829,-,1.040,0.731,0.324,0.581,0.545,���k��,5.1,��
2023/04/13,11:00,0.572,0.830,-,1.038,0.734,0.322,0.582,0.546,��,5.4,��
2023/04/13,11:10,0.571,0.829,-,1.042,0.732,0.324,0.581,0.547,��,5.8,��
2023/04/13,11:20,0.572,0.829,-,1.041,0.735,0.323,0.581,0.545,���쐼,6.6,��
2023/04/13,11:30,0.574,0.831,-,1.041,0.735,0.324,0.578,0.545,��,6.2,��
2023/04/13,11:40,0.574,0.829,-,1.041,0.735,0.324,0.582,0.548,��,5.9,��
2023/04/13,11:50,0.574,0.830,-,1.043,0.734,0.325,0.582,0.547,��,6.4,��
2023/04/13,12:00,0.573,0.832,-,1.040,0.734,0.324,0.583,0.547,��,7.2,��
2023/04/13,12:10,0.576,0.833,0.499,1.043,0.735,0.326,0.582,0.546,��,5.4,��
2023/04/13,12:20,0.575,0.830,0.500,1.041,0.735,0.323,0.582,0.548,��,6.8,��
2023/04/13,12:30,0.574,0.833,0.501,1.043,0.735,0.325,0.582,0.548,��,4.2,��
2023/04/13,12:40,0.574,0.832,0.501,1.044,0.734,0.326,0.583,0.549,��,7.3,��
2023/04/13,12:50,0.575,0.833,0.498,1.045,0.735,0.324,0.582,0.548,���k��,4.2,��
2023/04/13,13:00,0.572,0.833,0.500,1.043,0.736,0.325,0.582,0.548,�k��,3.9,��
2023/04/13,13:10,0.574,0.831,0.500,1.040,0.736,0.326,0.582,0.548,�k�k��,0.9,��
2023/04/13,13:20,0.572,0.830,0.500,1.044,0.737,0.324,0.582,0.548,��,2.8,��
2023/04/13,13:30,0.573,0.828,0.501,1.044,0.737,0.325,0.581,0.548,��쐼,3.8,��
2023/04/13,13:40,0.573,0.830,0.502,1.044,0.735,0.325,0.583,0.548,��,4.4,��
2023/04/13,13:50,0.574,0.829,0.501,1.045,0.737,0.325,0.582,0.549,��,3.4,��
2023/04/13,14:00,0.575,0.831,0.502,1.042,0.735,0.325,0.581,0.549,��,2.9,��
2023/04/13,14:10,0.574,0.830,0.502,1.040,0.735,0.325,0.581,0.548,��,5.1,��
2023/04/13,14:20,0.574,0.831,0.502,1.043,0.735,0.324,0.580,0.548,�쓌,5.5,��
2023/04/13,14:30,0.573,0.832,0.499,1.045,0.736,0.325,0.582,0.548,�쓌,5.8,��
2023/04/13,14:40,0.574,0.831,0.500,1.044,0.737,0.324,0.581,0.547,�쓌,7.2,��
2023/04/13,14:50,0.575,0.833,0.500,1.044,0.738,0.325,0.583,0.550,�쓌,6.2,��
2023/04/13,15:00,0.575,0.833,0.500,1.043,0.739,0.324,0.583,0.550,��쓌,4.9,��
2023/04/13,15:10,0.574,0.830,0.501,1.045,0.738,0.325,0.579,0.547,��쓌,6.4,��
2023/04/13,15:20,0.573,0.833,0.499,1.043,0.738,0.324,0.581,0.548,��쓌,4.7,��
2023/04/13,15:30,0.573,0.831,0.500,1.042,0.735,0.323,0.581,0.548,�쓌,4.8,��
2023/04/13,15:40,0.574,0.831,0.500,1.043,0.737,0.323,0.581,0.548,��쐼,3.3,��
2023/04/13,15:50,0.576,0.833,0.500,1.041,0.738,0.326,0.582,0.549,��,5.3,��
2023/04/13,16:00,0.575,0.831,0.500,1.043,0.739,0.325,0.584,0.547,���쐼,5.5,��
2023/04/13,16:10,0.577,0.832,0.502,1.042,0.737,0.324,0.582,0.548,���쐼,4.2,��
2023/04/13,16:20,0.575,0.832,0.500,1.040,0.736,0.324,0.582,0.547,��,4.9,��
2023/04/13,16:30,0.576,0.833,0.500,1.043,0.737,0.326,0.582,0.547,��,5.7,��
2023/04/13,16:40,0.575,0.834,0.501,1.040,0.735,0.326,0.582,0.549,��,4.3,��
2023/04/13,16:50,0.573,0.833,0.500,1.044,0.737,0.325,0.583,0.548,��,4.1,��
2023/04/13,17:00,0.574,0.833,0.500,1.043,0.737,0.326,0.581,0.548,��,5.2,��
2023/04/13,17:10,0.574,0.834,0.500,1.041,0.738,0.326,0.582,0.547,��,8.0,��
2023/04/13,17:20,0.574,0.834,0.498,1.042,0.738,0.326,0.583,0.549,��,7.5,��
2023/04/13,17:30,0.572,0.835,0.501,1.042,0.736,0.326,0.582,0.549,��,7.9,��
2023/04/13,17:40,0.575,0.836,0.500,1.039,0.737,0.326,0.583,0.551,��,7.3,��
2023/04/13,17:50,0.574,0.836,0.499,1.044,0.737,0.328,0.581,0.551,��,8.1,��
2023/04/13,18:00,0.572,0.833,0.500,1.042,0.737,0.326,0.581,0.551,��,8.6,��
2023/04/13,18:10,0.573,0.836,0.499,1.044,0.736,0.327,0.581,0.550,��,9.1,��
2023/04/13,18:20,0.575,0.838,0.498,1.046,0.737,0.326,0.581,0.550,��,7.7,��
2023/04/13,18:30,0.576,0.836,0.500,1.045,0.737,0.325,0.582,0.550,��,9.0,��
2023/04/13,18:40,0.575,0.836,0.500,1.044,0.737,0.326,0.582,0.551,��,7.6,��
2023/04/13,18:50,0.575,0.837,0.501,1.045,0.738,0.327,0.583,0.550,��,8.2,��
2023/04/13,19:00,0.575,0.836,0.500,1.042,0.740,0.326,0.584,0.550,��,9.2,��
2023/04/13,19:10,0.575,0.833,0.501,1.044,0.741,0.326,0.583,0.550,��,10.3,��
2023/04/13,19:20,0.577,0.838,0.501,1.047,0.739,0.327,0.584,0.550,��,10.2,��
2023/04/13,19:30,0.574,0.835,0.501,1.046,0.739,0.326,0.585,0.550,��,8.8,��
2023/04/13,19:40,0.575,0.837,0.500,1.045,0.739,0.326,0.583,0.548,��,8.0,��
2023/04/13,19:50,0.575,0.834,0.502,1.047,0.739,0.326,0.583,0.550,��,7.9,��
2023/04/13,20:00,0.575,0.835,0.501,1.043,0.740,0.326,0.584,0.550,��쐼,7.7,��
2023/04/13,20:10,0.574,0.836,0.502,1.044,0.737,0.326,0.584,0.548,��쐼,6.7,��
2023/04/13,20:20,0.576,0.836,0.501,1.045,0.740,0.326,0.583,0.548,��쐼,6.7,��
2023/04/13,20:30,0.574,0.834,0.502,1.045,0.740,0.326,0.586,0.550,�쐼,6.6,��
2023/04/13,20:40,0.574,0.837,0.499,1.046,0.739,0.325,0.583,0.550,�쐼,5.8,��
2023/04/13,20:50,0.576,0.834,0.501,1.044,0.739,0.326,0.584,0.548,�쐼,6.4,��
2023/04/13,21:00,0.574,0.835,0.501,1.043,0.739,0.326,0.584,0.549,�쐼,8.1,��
2023/04/13,21:10,0.575,0.838,0.498,1.046,0.737,0.326,0.585,0.548,�쐼,8.3,��
2023/04/13,21:20,0.574,0.835,0.501,1.043,0.738,0.325,0.584,0.549,�쐼,8.5,��
2023/04/13,21:30,0.576,0.835,0.499,1.044,0.739,0.326,0.584,0.550,�쐼,10.0,��
2023/04/13,21:40,0.575,0.836,0.502,1.047,0.739,0.327,0.585,0.548,�쐼,9.7,��
2023/04/13,21:50,0.574,0.834,0.502,1.044,0.738,0.327,0.585,0.550,�쐼,10.3,��
2023/04/13,22:00,0.576,0.835,0.500,1.047,0.739,0.326,0.587,0.547,�쐼,9.5,��
2023/04/13,22:10,0.574,0.836,0.500,1.046,0.740,0.326,0.585,0.549,�쐼,10.3,��
2023/04/13,22:20,0.576,0.834,0.501,1.047,0.739,0.327,0.585,0.549,�쐼,11.0,��
2023/04/13,22:30,0.575,0.833,0.503,1.043,0.741,0.326,0.586,0.549,�쐼,12.8,��
2023/04/13,22:40,0.575,0.837,0.501,1.045,0.740,0.326,0.584,0.552,�쐼,12.0,��
2023/04/13,22:50,0.577,0.835,0.502,1.044,0.739,0.326,0.584,0.549,�쐼,11.8,��
2023/04/13,23:00,0.575,0.837,0.501,1.044,0.740,0.326,0.585,0.550,�쐼,10.8,��
2023/04/13,23:10,0.576,0.835,0.500,1.045,0.739,0.327,0.584,0.549,�쐼,9.0,��
2023/04/13,23:20,0.574,0.834,0.501,1.044,0.739,0.326,0.584,0.549,��쐼,9.2,��
2023/04/13,23:30,0.576,0.835,0.501,1.043,0.739,0.326,0.584,0.551,�쐼,8.4,��
2023/04/13,23:40,0.575,0.836,0.502,1.045,0.738,0.326,0.585,0.551,��쐼,8.6,��
2023/04/13,23:50,0.577,0.835,0.501,1.046,0.740,0.328,0.583,0.550,�쐼,9.0,��
